Flag for Kazakhstan Weather past 2 weeks in Aqtobe, Kazakhstan

Now
1 °F

Sunny.


Feels Like: -6 °F
Forecast: -13 / 8 °F
Wind: 3 mph from Southwest

Location: Aktjubinsk

Current Time: Jan 31, 2015 at 3:53:20 PM

Latest Report: Jan 31, 2015 at 3:30 PM


Visibility: 10 mi

Pressure: 30.33 "Hg

Humidity: 60%

Dew point: -9 °F

Location of AqtobeLocation

Historic Weather in Aqtobe — Graph

°F

Aqtobe temperature yesterday

Maximum temperature yesterday: 7 °F (at 2:30 PM)
Minimum temperature yesterday: -17 °F (at 11:30 PM)
Average temperature yesterday: -7 °F

Past Weeks' High & Low Weather Summary

 TemperatureHumidityPressure
High27 °F (Jan 18, 1:30 AM)100% (Jan 16, 2:30 PM)30.95 "Hg (Jan 16, 2:30 PM)
Low-36 °F (Jan 25, 4:00 AM)59% (Jan 29, 12:30 PM)29.95 "Hg (Jan 17, 4:00 AM)
Average-2 °F82%30.43 "Hg
* Reported Jan 16 2:00 PM — Jan 31 2:30 PM, Aqtobe, Weather by CustomWeather, © 2014

Note: Actual official high and low records may vary slightly from our data, if they occured in-between our weather recording intervals... More about our weather records

Advertising

Aqtobe weather history for previous 24 hours

 ConditionsComfort  
Time TempWeatherWind HumidityBarometerVisibility
2:30 PM
Jan 31
0 °FClear.6 mph71%30.33 "HgN/A
2:00 PM-2 °FClear.1 mph77%30.33 "Hg4 mi
1:30 PM-4 °FClear.1 mph77%30.36 "Hg5 mi
1:00 PM-6 °FClear.1 mph77%30.36 "Hg4 mi
12:30 PM-8 °FClear.1 mph77%30.36 "Hg4 mi
12:00 PM-11 °FClear.1 mph84%30.36 "Hg4 mi
11:30 AM-11 °FClear.1 mph76%30.36 "Hg4 mi
11:00 AM-15 °FClear.1 mph76%30.36 "Hg4 mi
10:30 AM-18 °FClear.No wind75%30.33 "Hg4 mi
10:00 AM-18 °FClear.No wind75%30.33 "HgN/A
9:30 AM-24 °FClear.1 mph75%30.33 "Hg6 mi
9:00 AM-22 °FSunny.1 mph75%30.33 "Hg10 mi
8:00 AM-22 °FClear.1 mph75%30.33 "Hg10 mi
7:30 AM-20 °FClear.1 mph75%30.33 "Hg10 mi
7:00 AM-22 °FClear.1 mph68%30.33 "Hg10 mi
6:30 AM-17 °FClear.1 mph83%30.30 "Hg10 mi
6:00 AM-22 °FClear.3 mph75%30.30 "Hg10 mi
5:30 AM-22 °FClear.3 mph68%30.30 "Hg10 mi
5:00 AM-22 °FClear.3 mph75%30.30 "Hg10 mi
4:30 AM-18 °FClear.1 mph75%30.30 "Hg10 mi
4:00 AM-17 °FClear.1 mph76%30.30 "Hg6 mi
3:30 AM-22 °FClear.1 mph75%30.30 "Hg5 mi
3:00 AM-17 °FClear.1 mph76%30.30 "Hg10 mi
2:30 AM-17 °FClear.1 mph76%30.30 "Hg10 mi
2:00 AM-15 °FClear.No wind76%30.30 "Hg10 mi
1:30 AM-15 °FClear.3 mph83%30.30 "Hg10 mi
1:00 AM-17 °FClear.No wind83%30.30 "Hg10 mi
12:30 AM-17 °FPassing clouds.3 mph76%30.30 "HgN/A
12:00 AM-17 °FClear.3 mph83%30.30 "Hg10 mi
11:30 PM
Jan 30
-17 °FClear.3 mph76%30.30 "Hg10 mi
11:00 PM-15 °FClear.3 mph76%30.30 "Hg10 mi
10:30 PM-15 °FClear.3 mph83%30.30 "Hg10 mi
10:00 PM-11 °FClear.3 mph84%30.30 "Hg10 mi
9:30 PM-11 °FClear.3 mph91%30.27 "Hg10 mi
9:00 PM-11 °FClear.3 mph76%30.27 "Hg10 mi
8:30 PM-6 °FClear.3 mph77%30.30 "Hg10 mi
8:00 PM-8 °FClear.6 mph84%30.27 "Hg10 mi
7:30 PM-4 °FClear.3 mph77%30.27 "Hg10 mi
7:00 PM-4 °FClear.3 mph77%30.27 "Hg10 mi
6:30 PM-2 °FClear.6 mph77%30.27 "Hg10 mi
6:00 PM-2 °FPassing clouds.6 mph77%30.27 "HgN/A
5:30 PM-2 °FPartly sunny.6 mph77%30.24 "HgN/A
5:00 PM3 °FPartly sunny.3 mph72%30.24 "HgN/A
4:30 PM7 °FFrigid.3 mph66%30.24 "HgN/A
4:00 PM7 °FSunny.3 mph66%30.24 "Hg10 mi
3:30 PM7 °FSunny.1 mph61%30.24 "Hg10 mi
3:00 PM5 °FPartly sunny.1 mph66%30.24 "HgN/A
Weather by CustomWeather, © 2014

See weather overviewHow to use our weather pages